星链-2415 (STARLINK-2415 )

导读 | 豆包AI

STARLINK-2415是美国太空探索技术公司SpaceX星链星座的一员,于2021年3月11日发射入轨。星链项目旨在构建覆盖全球的低轨卫星互联网星座,为偏远地区、灾害区域等提供高速网络接入服务。该卫星部署在近地轨道,承担信号转发任务,助力星链实现全球网络覆盖的目标,是星链网络扩容过程中的重要组成部分。

Basic Information
目录编号:
47828
目录名称:
STARLINK-2415
国际标识:
2021-018AT
轨道中心:
EARTH
卫星名称:
星链-2415
卫星全名:
星链-2415 (STARLINK-2415 )
卫星状态:
在轨 (已飞行1829 天)
发射日期:
2021-03-11 UTC
国别 :
美国 (US)
星等 :
--
Orbit Information
数据来源 国际轨道数据 AOE轨道数据
星历时间 2026-03-13T19:09:10+0800
1天前
查看轨道信息
2026-03-14T09:00:00+0800
13小时前
查看轨道信息
半长轴 6853.323km 6853.304km
偏心率 0.0000816 0.0001156
轨道倾角 53.159° 53.160°
近地点辐角 57.443° 48.989°
升交点赤经 237.752° 235.074°
平近点角 302.665° 251.274°
近地点 474.626km 474.374km
远地点 475.746km 475.96km
周期 94.105分钟 94.104分钟
每日圈数 15.302098 15.302162
Detailed Information
固有亮度:
5
最大亮度:
2.5
卫星平台:
Starlink V1.0
覆盖范围:
全球
运营商:
太空探索技术公司
运营商所在国:
美国
制造商(研发单位):
太空探索技术公司
制造商所在国:
美国
使用方式:
暂无
Satellite Introduction
星链(Starlink)计划是由太空探索技术公司(SpaceX)提出的一个巨型低轨卫星互联网星座项目,计划在2019年至2024年间在太空搭建由约1.2万颗卫星组成的“星链”网络,其中1584颗将部署在地球上空550千米处的近地轨道,并从2020年开始工作。该卫星仍在工作。
2D Orbit Map
3D Orbit Map
Orbit Altitude Analysis Chart
Orbit Inclination Analysis Chart
Orbit Comprehensive Analysis Chart
View Comprehensive Chart